星链-31418 (STARLINK-31418 )

导读 | 星芒AI

STARLINK-31418 是 SpaceX 星链(Starlink)卫星互联网项目中的一颗低轨通信卫星。该卫星属于星链计划的第 6 批次(v1.5 版本),于 2023 年 9 月发射,旨在为全球用户提供高速互联网服务。它运行在约 550 公里的近地轨道,设计寿命约 5 年,具备自动避障和激光通信能力,有助于提升网络稳定性和数据传输效率。星链项目通过部署大量卫星,构建覆盖全球的宽带网络,尤其服务于偏远地区。

基本信息
目录编号:
59251
目录名称:
STARLINK-31418
国际标识:
2024-049W
轨道中心:
EARTH
卫星名称:
星链-31418
卫星全名:
星链-31418 (STARLINK-31418 )
卫星状态:
已陨落 最后检测时间 2025-03-17
发射日期:
2024-03-16 UTC
国别 :
美国 (US)
星等 :
--
轨道信息
数据来源 国际轨道数据
星历时间: 2025-03-17T02:35:31+0800
轨道信息已过期229天
半长轴: 6570.635km
偏心率: 0.0014601
轨道倾角: 42.977°
近地点辐角 235.876°
升交点赤经 328.792°
平近点角 172.929°
近地点: 182.906km
远地点: 202.094km
周期: 88.343分钟
每日圈数: 16.300159
详细信息
固有亮度:
5
最大亮度:
0.3
卫星平台:
Starlink v2.0 mini
覆盖范围:
全球
运营商:
太空探索技术公司
运营商所在国:
美国
制造商(研发单位):
太空探索技术公司
制造商所在国:
美国
使用方式:
暂无
卫星简介
星链(Starlink)计划是由太空探索技术公司(SpaceX)提出的一个巨型低轨卫星互联网星座项目,计划在2019年至2024年间在太空搭建由约1.2万颗卫星组成的“星链”网络,其中1584颗将部署在地球上空550千米处的近地轨道,并从2020年开始工作。该卫星仍在工作。